TimePDT,TemperatureF,Dew PointF,Humidity,Sea Level PressureIn,VisibilityMPH,Wind Direction,Wind SpeedMPH,Gust SpeedMPH,PrecipitationIn,Events,Conditions,WindDirDegrees,DateUTC
12:53 AM,44.1,41.0,89,29.67,10.0,Variable,6.9,-,0.00,,Overcast,0,2012-10-23 07:53:00
1:53 AM,45.0,39.9,82,29.69,10.0,South,9.2,-,N/A,,Overcast,170,2012-10-23 08:53:00
2:53 AM,44.1,39.0,82,29.70,10.0,South,9.2,-,N/A,,Mostly Cloudy,170,2012-10-23 09:53:00
3:53 AM,44.1,39.9,85,29.71,10.0,SSE,10.4,-,0.00,Rain,Light Rain,150,2012-10-23 10:53:00
4:53 AM,42.1,39.0,89,29.73,10.0,SE,8.1,-,0.00,,Mostly Cloudy,140,2012-10-23 11:53:00
5:53 AM,43.0,39.9,89,29.75,10.0,SE,5.8,-,N/A,,Mostly Cloudy,140,2012-10-23 12:53:00
6:53 AM,43.0,39.9,89,29.76,10.0,SSE,8.1,-,N/A,,Scattered Clouds,150,2012-10-23 13:53:00
7:53 AM,43.0,39.9,89,29.78,10.0,SE,5.8,-,N/A,,Overcast,130,2012-10-23 14:53:00
8:53 AM,44.1,39.9,85,29.80,10.0,SE,9.2,-,N/A,,Mostly Cloudy,140,2012-10-23 15:53:00
9:53 AM,46.4,39.2,76,29.81,10.0,SSE,6.9,-,N/A,,Mostly Cloudy,150,2012-10-23 16:53:00
10:53 AM,48.2,39.2,71,29.82,10.0,Variable,3.5,-,N/A,,Mostly Cloudy,0,2012-10-23 17:53:00
11:53 AM,48.9,39.0,69,29.83,10.0,Variable,5.8,-,N/A,,Overcast,0,2012-10-23 18:53:00
12:53 PM,50.0,37.9,63,29.84,10.0,SSE,8.1,-,N/A,,Mostly Cloudy,160,2012-10-23 19:53:00
1:53 PM,51.1,39.0,63,29.84,10.0,Calm,Calm,-,N/A,,Mostly Cloudy,0,2012-10-23 20:53:00
2:53 PM,51.1,39.0,63,29.84,10.0,SSW,4.6,-,0.00,,Mostly Cloudy,210,2012-10-23 21:53:00
3:53 PM,52.0,37.9,59,29.84,10.0,SSW,8.1,-,N/A,,Scattered Clouds,200,2012-10-23 22:53:00
4:53 PM,50.0,37.9,63,29.86,10.0,SSW,5.8,-,N/A,,Mostly Cloudy,210,2012-10-23 23:53:00
5:53 PM,48.9,39.0,69,29.86,10.0,Calm,Calm,-,N/A,,Overcast,0,2012-10-24 00:53:00
6:53 PM,50.0,37.9,63,29.87,10.0,SSE,3.5,-,N/A,,Mostly Cloudy,150,2012-10-24 01:53:00
7:53 PM,46.9,37.9,71,29.87,10.0,Calm,Calm,-,N/A,,Mostly Cloudy,0,2012-10-24 02:53:00
8:53 PM,46.9,39.0,74,29.87,10.0,SE,3.5,-,N/A,,Mostly Cloudy,140,2012-10-24 03:53:00
9:53 PM,48.0,37.9,68,29.87,10.0,East,3.5,-,N/A,,Overcast,100,2012-10-24 04:53:00
10:53 PM,46.9,39.0,74,29.87,10.0,Calm,Calm,-,N/A,,Overcast,0,2012-10-24 05:53:00
11:53 PM,46.0,39.0,76,29.88,10.0,South,3.5,-,0.00,Rain,Light Rain,170,2012-10-24 06:53:00